Location: Altenhof
(50.2418°N, 10.8789°E)
Time: 08:51:35
(UTC+00:00)

ATLAS 2AS CENTAUR R/B - Pass Details

Date: 18 February 2020
Orbit: 929 x 1283 km, 63.7° (Epoch: 05 April)

Event Time Altitude Azimuth Distance (km) Brightness Sun altitude
Exits shadow 01:39:28 32° 6° (N) 2,010 4.3 -43.4°
Drops below altitude 10° 01:44:50 10° 46° (NE) 3,192 5.8 -42.8°
Sets 01:47:52 0° 56° (NE) 4,114 6.6 -42.4°
